Temp
-11 -11 -11 -11 -11 -11 -11 -10 -10 -10 -10 -10 -10 -10 -10 -10 -10 -10 -10 -10 -10 -11 -11 -11 -11 -12 -12 -12 -12 -12 -13 -13
-11 -11 -11 -11 -11 -11 -11 -11 -11 -11 -10 -10 -10 -10 -10 -10 -10 -10 -10 -10 -10 -11 -11 -12 -12 -12 -12 -13 -13 -12 -13 -13
-10 -11 -11 -11 -11 -10 -10 -11 -11 -11 -11 -11 -11 -10 -10 -10 -10 -10 -11 -11 -11 -11 -11 -12 -12 -12 -12 -12 -12 -12 -13 -14
-10 -11 -12 -11 -10 -10 -10 -10 -10 -11 -11 -10 -10 -10 -10 -11 -11 -11 -11 -12 -12 -12 -12 -12 -12 -11 -11 -12 -12 -12 -12 -14
-11 -11 -11 -11 -11 -10 -11 -11 -11 -11 -10 -10 -10 -10 -11 -11 -12 -12 -13 -12 -12 -12 -12 -12 -12 -13 -13 -13 -13 -13 -13 -13
-11 -11 -11 -11 -11 -11 -11 -11 -11 -11 -11 -11 -11 -11 -12 -12 -12 -12 -12 -12 -12 -12 -12 -12 -12 -12 -12 -12 -13 -14 -15 -16
-11 -11 -11 -11 -11 -11 -11 -11 -11 -11 -11 -11 -12 -12 -12 -13 -12 -12 -12 -12 -12 -12 -12 -12 -12 -12 -12 -13 -13 -15 -17 -18
-10 -11 -11 -11 -12 -12 -12 -12 -12 -12 -12 -12 -12 -12 -12 -12 -12 -12 -12 -12 -12 -12 -12 -12 -13 -13 -13 -13 -13 -15 -17 -18
-11 -11 -11 -12 -12 -12 -12 -12 -12 -12 -12 -12 -12 -12 -12 -12 -12 -12 -12 -12 -12 -12 -12 -13 -13 -13 -13 -14 -15 -15 -16 -17
-11 -11 -12 -12 -12 -12 -12 -12 -12 -13 -13 -14 -14 -14 -13 -12 -12 -12 -12 -12 -12 -13 -13 -13 -13 -13 -14 -15 -16 -17 -18 -19
-11 -11 -12 -12 -12 -12 -13 -13 -13 -13 -14 -14 -14 -13 -12 -13 -13 -13 -13 -13 -13 -13 -13 -13 -14 -15 -16 -17 -18 -20 -21 -23
-11 -11 -12 -12 -12 -13 -13 -13 -14 -14 -14 -14 -13 -13 -14 -13 -13 -13 -13 -13 -13 -14 -14 -14 -15 -17 -18 -20 -23 -24 -24 -25
-11 -11 -11 -12 -12 -12 -13 -13 -14 -14 -14 -14 -13 -13 -14 -14 -14 -14 -14 -14 -14 -14 -15 -16 -17 -18 -21 -23 -24 -25 -25 -26
-11 -11 -11 -11 -12 -12 -13 -13 -14 -14 -14 -14 -13 -14 -14 -14 -15 -15 -14 -14 -14 -15 -17 -18 -20 -22 -24 -25 -25 -25 -26 -27
-12 -12 -12 -12 -13 -13 -14 -14 -14 -14 -14 -14 -14 -15 -15 -15 -15 -15 -15 -15 -15 -17 -18 -20 -23 -24 -25 -25 -25 -27 -27 -28
-12 -12 -13 -13 -14 -14 -14 -14 -15 -15 -16 -15 -15 -15 -15 -15 -15 -15 -15 -16 -17 -18 -20 -24 -24 -25 -25 -25 -27 -27 -28 -28
-13 -12 -13 -14 -14 -14 -15 -15 -15 -16 -15 -15 -15 -15 -15 -15 -15 -15 -17 -18 -19 -22 -24 -24 -25 -24 -26 -27 -28 -28 -28 -29
-13 -13 -14 -14 -14 -15 -15 -16 -16 -15 -14 -15 -16 -16 -16 -16 -16 -17 -18 -19 -22 -24 -25 -25 -25 -26 -27 -28 -28 -28 -28 -28
-14 -14 -15 -15 -15 -15 -16 -16 -15 -15 -16 -16 -16 -16 -16 -17 -17 -18 -19 -22 -24 -25 -25 -25 -26 -27 -28 -28 -29 -29 -29 -29
Height
5821 5822 5822 5821 5820 5823 5825 5824 5823 5822 5822 5821 5820 5820 5818 5817 5816 5814 5813 5812 5809 5806 5803 5800 5797 5795 5791 5788 5784 5781 5778 5777
5817 5817 5816 5815 5815 5815 5817 5818 5817 5817 5817 5815 5814 5813 5811 5810 5808 5806 5804 5800 5796 5793 5790 5788 5785 5782 5779 5775 5772 5769 5765 5761
5814 5811 5810 5809 5810 5810 5811 5811 5811 5811 5809 5808 5807 5805 5804 5801 5799 5795 5792 5789 5786 5782 5778 5774 5770 5768 5765 5760 5756 5753 5749 5744
5807 5805 5804 5804 5806 5806 5806 5805 5803 5801 5799 5799 5798 5796 5794 5791 5789 5786 5782 5778 5774 5771 5768 5763 5759 5755 5751 5746 5740 5735 5732 5726
5798 5798 5797 5798 5799 5800 5800 5799 5796 5793 5792 5791 5789 5787 5784 5781 5778 5775 5771 5767 5763 5760 5756 5752 5746 5740 5734 5728 5721 5717 5713 5710
5790 5790 5790 5791 5792 5793 5792 5790 5787 5785 5784 5783 5780 5777 5774 5771 5767 5763 5760 5756 5751 5746 5740 5735 5729 5724 5718 5711 5704 5695 5690 5685
5780 5781 5782 5785 5786 5785 5784 5782 5780 5777 5776 5772 5770 5766 5763 5760 5757 5754 5750 5744 5737 5731 5724 5718 5711 5705 5697 5690 5682 5674 5668 5664
5772 5774 5776 5778 5779 5778 5777 5774 5772 5769 5767 5764 5760 5757 5753 5750 5746 5740 5733 5727 5720 5714 5706 5699 5690 5681 5675 5668 5660 5653 5646 5641
5765 5767 5769 5770 5771 5770 5768 5765 5763 5760 5758 5754 5749 5745 5740 5736 5731 5726 5720 5712 5705 5697 5688 5680 5671 5662 5652 5643 5637 5626 5620 5611
5758 5759 5761 5762 5761 5760 5758 5755 5753 5750 5746 5740 5735 5730 5729 5723 5717 5711 5703 5695 5686 5677 5668 5660 5649 5638 5628 5617 5606 5596 5589 5583
5748 5750 5751 5751 5750 5748 5747 5745 5742 5738 5734 5728 5723 5719 5713 5707 5701 5694 5686 5677 5669 5660 5650 5639 5627 5614 5599 5587 5579 5570 5563 5558
5738 5739 5739 5739 5738 5736 5735 5733 5730 5725 5719 5714 5709 5703 5698 5692 5684 5674 5666 5659 5648 5639 5629 5617 5603 5591 5577 5564 5557 5550 5542 5538
5727 5728 5727 5727 5725 5725 5724 5720 5715 5709 5705 5700 5692 5686 5681 5674 5666 5659 5650 5641 5630 5618 5604 5593 5582 5569 5557 5547 5539 5533 5526 5520
5716 5716 5716 5716 5715 5712 5709 5704 5699 5694 5688 5682 5677 5673 5667 5660 5652 5645 5635 5623 5609 5596 5584 5571 5559 5548 5540 5531 5523 5515 5508 5501
5705 5704 5703 5703 5702 5699 5695 5690 5685 5679 5674 5669 5666 5660 5653 5645 5636 5626 5613 5601 5589 5578 5565 5552 5542 5534 5525 5515 5505 5497 5490 5485
5692 5693 5692 5690 5688 5685 5681 5675 5671 5667 5662 5658 5652 5645 5636 5627 5617 5606 5594 5583 5572 5559 5548 5538 5528 5518 5508 5498 5489 5482 5476 5470
5680 5679 5677 5676 5675 5670 5665 5661 5658 5653 5648 5643 5636 5628 5618 5609 5599 5589 5580 5567 5554 5543 5534 5524 5515 5504 5492 5484 5478 5473 5464 5455
5667 5665 5665 5663 5660 5656 5652 5648 5642 5638 5632 5626 5619 5611 5602 5592 5583 5574 5562 5551 5539 5530 5521 5512 5502 5490 5482 5475 5470 5464 5457 5451
5652 5651 5650 5649 5645 5642 5638 5633 5628 5622 5617 5611 5602 5594 5586 5576 5564 5555 5545 5535 5527 5519 5510 5502 5492 5481 5473 5467 5462 5456 5450 5445
Wind_Speed
24 25 25 26 24 21 20 21 22 23 24 23 22 24 26 29 33 35 37 37 38 40 41 42 44 46 48 51 52 54 58 57
23 25 26 26 25 25 23 22 21 21 22 24 25 28 31 33 35 37 39 40 42 44 46 48 50 52 54 56 58 60 62 64
23 22 25 30 27 26 24 22 22 23 26 27 29 31 34 36 38 40 42 44 46 47 49 51 54 57 60 63 65 67 68 69
19 23 25 27 25 27 25 24 25 28 29 31 33 35 38 39 41 43 45 47 48 51 53 57 60 64 67 68 70 73 74 76
20 22 24 24 25 25 25 25 27 30 32 33 37 39 41 43 44 45 47 48 51 54 57 60 62 65 68 71 74 77 80 81
23 23 24 26 28 26 24 26 29 32 35 37 41 43 43 44 46 48 49 51 54 58 61 63 66 70 75 77 80 82 83 79
26 26 25 25 26 24 26 29 33 36 38 41 41 44 45 47 50 51 53 55 58 62 66 69 73 77 81 84 85 85 78 72
28 27 26 25 25 27 29 32 36 40 43 45 47 48 50 51 52 55 58 61 65 69 74 77 80 84 88 91 92 91 85 81
28 26 25 25 28 29 33 37 41 44 46 49 50 52 54 52 57 61 63 67 72 76 80 84 88 91 93 96 96 98 99 99
31 29 29 29 31 33 37 40 42 46 49 52 54 57 56 59 62 65 69 73 78 81 85 89 92 96 98 101 102 105 101 92
36 34 31 32 34 38 39 40 44 48 52 55 59 60 62 65 67 72 74 78 82 85 89 91 94 98 102 105 104 92 84 71
36 35 36 36 40 41 41 45 48 51 54 58 61 64 65 69 73 76 80 82 85 87 92 95 98 102 103 92 77 70 66 64
38 39 39 42 44 44 47 49 52 55 57 61 65 67 70 72 76 80 82 84 87 92 95 99 104 103 90 74 69 67 68 66
42 44 44 46 47 48 49 52 56 60 61 65 70 69 71 75 78 80 83 86 91 96 99 103 95 81 70 68 69 70 68 66
46 46 47 48 51 50 51 54 58 61 66 70 69 71 74 77 79 82 85 90 94 97 101 93 74 67 67 71 74 65 59 56
48 49 51 51 50 52 53 57 61 65 68 71 71 74 78 80 80 83 88 93 96 100 86 67 65 65 71 70 55 54 55 56
51 53 52 53 51 52 57 60 63 66 71 71 75 78 80 79 81 86 91 94 96 77 62 61 61 69 63 51 47 44 46 40
54 53 51 51 53 56 59 62 65 68 71 73 76 77 78 82 86 89 92 93 72 58 56 58 62 59 52 48 48 45 41 34
53 53 52 52 56 57 59 61 68 71 72 75 75 77 81 84 88 91 89 68 55 52 53 55 55 52 46 42 37 37 36 35
Wind_Direction
265 266 272 277 280 274 267 271 275 278 282 284 290 292 292 292 295 297 298 295 293 292 292 290 290 289 289 288 288 290 291 289
259 259 268 270 272 269 269 268 273 279 283 283 286 287 288 291 292 292 293 292 292 293 295 295 294 294 293 292 293 292 291 288
252 253 253 263 265 266 267 272 275 277 280 284 288 289 290 290 291 290 290 290 290 290 290 290 292 294 295 295 294 292 290 288
244 247 246 248 257 260 265 271 276 278 280 284 286 287 288 288 287 287 287 288 290 292 295 297 299 297 296 296 295 293 291 289
251 249 253 254 256 261 265 272 273 275 279 282 283 284 284 284 284 284 287 290 293 297 297 295 294 294 294 292 291 291 291 291
256 253 251 256 260 265 269 266 269 272 277 279 280 282 283 283 283 288 291 294 295 295 295 294 293 292 293 294 295 293 293 291
263 254 252 256 262 261 267 271 273 276 281 282 282 281 283 284 286 291 291 295 296 297 296 295 294 295 295 297 297 296 293 287
262 260 260 261 259 267 272 273 279 284 287 287 285 284 285 285 287 292 294 295 296 295 294 297 298 299 299 295 294 294 293 290
267 263 262 262 267 274 278 281 286 288 287 284 282 282 285 295 296 296 296 294 294 296 298 300 299 297 295 295 295 294 295 298
264 263 261 267 274 278 280 283 287 289 291 293 292 288 290 290 296 299 296 296 299 298 298 297 295 294 295 296 297 300 302 302
255 259 268 273 275 277 282 290 293 293 291 288 287 288 287 290 292 296 297 298 298 299 296 295 296 298 301 303 304 305 302 296
257 264 272 278 280 286 294 295 291 288 287 288 290 289 289 290 291 294 296 298 298 299 298 299 301 304 307 307 304 299 296 292
266 273 278 280 287 292 291 289 288 288 288 288 287 290 293 293 295 297 300 301 301 299 302 304 306 307 308 303 300 298 295 295
268 271 276 280 286 290 289 287 286 287 287 287 290 293 294 295 299 302 300 301 302 304 307 309 311 308 303 302 301 299 297 292
272 277 282 286 288 287 284 284 284 284 285 287 291 294 296 299 300 301 302 302 304 307 309 310 307 303 304 303 302 299 296 292
275 280 283 284 283 283 282 283 284 285 288 291 295 297 297 299 302 302 302 305 307 310 310 306 305 307 307 306 303 302 300 293
278 279 278 279 280 281 282 283 287 288 291 295 296 298 300 301 301 302 304 307 309 311 308 308 310 311 311 308 310 308 314 295
276 275 279 283 281 283 285 287 288 290 292 295 298 299 300 301 303 304 307 309 312 309 310 312 315 318 311 304 304 307 306 304
278 281 284 282 281 283 285 289 290 292 294 296 296 298 300 302 304 306 309 312 310 311 314 316 324 325 320 313 312 315 315 310